Weather History for KRKR - September, 2013

Change the Weather History Date:

Wednesday, September 11, 2013

  Actual Average (KFSM) Record (KFSM)
Temperature  
Mean Temperature 82 °F 76 °F  
Max Temperature 96 °F 87 °F 104 °F (1909)
Min Temperature 69 °F 64 °F 42 °F (1976)
Degree Days  
Heating Degree Days 0 0  
Month to date heating degree days 0  
Since 1 July heating degree days 0  
Cooling Degree Days 18 11  
Month to date cooling degree days 139  
Year to date cooling degree days 1834  
Growing Degree Days 32 (Base 50)    
Moisture  
Dew Point 72 °F    
Average Humidity 80    
Maximum Humidity 100    
Minimum Humidity 41    
Precipitation  
Precipitation 0.35 in 0.13 in 1.76 in (1947)
Month to date precipitation 1.38  
Year to date precipitation 30.74  
Sea Level Pressure  
Sea Level Pressure 30.10 in    
Wind  
Wind Speed 0 mph (NE)    
Max Wind Speed 15 mph    
Max Gust Speed 28 mph    
Visibility 8 miles    
Events Rain , Thunderstorm    
T = Trace of Precipitation, MM = Missing Value Source: NWS Daily Summary

Daily Weather History Graph

Daily Weather History Graph

Search for Another Location

Airport or City:

Trip Planner

Search our weather history database for the weather conditions in past years. The results will help you decide how hot, cold, wet, or windy it might be!

Date:

Astronomy

Sep. 11, 2013 Rise Set
Actual Time 6:58 AM CDT 7:30 PM CDT
Civil Twilight 6:33 AM CDT 7:56 PM CDT
Nautical Twilight 6:03 AM CDT 8:26 PM CDT
Astronomical Twilight 5:32 AM CDT 8:56 PM CDT
Moon 1:12 PM CDT (9/11) 11:42 PM CDT (9/11)
Length of Visible Light 13h 22m
Length of Day
12h 32m
Waxing Crescent, 39% of the Moon is Illuminated
Sep 11
Waxing Crescent
Sep 12
First Quarter
Sep 19
Full
Sep 26
Last Quarter
Oct 4
New

Hourly Weather History & Observations

Time (CDT) Temp. Heat Index Dew Point Humidity Pressure Visibility Wind Dir Wind Speed Gust Speed Precip Events Conditions
12:15 AM 73.4 °F - 71.6 °F 94% 30.09 in 10.0 mi Calm Calm - N/A   Unknown
12:35 AM 73.4 °F - 71.6 °F 94% 30.09 in 10.0 mi Calm Calm - N/A   Unknown
12:55 AM 77.0 °F - 73.4 °F 89% 30.10 in 10.0 mi Calm Calm - N/A   Unknown
1:15 AM 73.4 °F - 71.6 °F 94% 30.10 in 10.0 mi Calm Calm - N/A   Unknown
1:35 AM 77.0 °F - 73.4 °F 89% 30.10 in 10.0 mi Calm Calm - N/A   Unknown
1:55 AM 77.0 °F - 73.4 °F 89% 30.10 in 10.0 mi Calm Calm - N/A   Unknown
2:15 AM 73.4 °F - 71.6 °F 94% 30.10 in 10.0 mi Calm Calm - N/A   Unknown
2:35 AM 73.4 °F - 71.6 °F 94% 30.10 in 10.0 mi Calm Calm - N/A   Unknown
2:55 AM 73.4 °F - 71.6 °F 94% 30.10 in 10.0 mi Calm Calm - N/A   Unknown
3:15 AM 73.4 °F - 71.6 °F 94% 30.10 in 7.0 mi Calm Calm - N/A   Unknown
3:35 AM 71.6 °F - 71.6 °F 100% 30.11 in 7.0 mi Calm Calm - N/A   Unknown
3:55 AM 71.6 °F - 71.6 °F 100% 30.11 in 7.0 mi Calm Calm - N/A   Unknown
4:15 AM 71.6 °F - 71.6 °F 100% 30.10 in 7.0 mi Calm Calm - N/A   Unknown
4:35 AM 71.6 °F - 71.6 °F 100% 30.10 in 7.0 mi Calm Calm - N/A   Unknown
4:55 AM 71.6 °F - 69.8 °F 94% 30.11 in 7.0 mi Calm Calm - N/A   Unknown
5:15 AM 71.6 °F - 71.6 °F 100% 30.11 in 7.0 mi Calm Calm - N/A   Unknown
5:35 AM 71.6 °F - 71.6 °F 100% 30.11 in 7.0 mi Calm Calm - N/A   Unknown
5:55 AM 71.6 °F - 71.6 °F 100% 30.11 in 5.0 mi Calm Calm - N/A   Mist
6:15 AM 71.6 °F - 71.6 °F 100% 30.13 in 5.0 mi Calm Calm - N/A   Mist
6:35 AM 71.6 °F - 71.6 °F 100% 30.13 in 5.0 mi Calm Calm - N/A   Mist
6:55 AM 71.6 °F - 71.6 °F 100% 30.13 in 4.0 mi Calm Calm - N/A   Mist
7:15 AM 71.6 °F - 71.6 °F 100% 30.13 in 4.0 mi Calm Calm - N/A   Mist
7:35 AM 69.8 °F - 69.8 °F 100% 30.14 in 3.0 mi Calm Calm - N/A   Mist
7:55 AM 71.6 °F - 71.6 °F 100% 30.14 in 3.0 mi Calm Calm - N/A   Mist
8:15 AM 71.6 °F - 71.6 °F 100% 30.14 in 5.0 mi Calm Calm - N/A   Mist
8:35 AM 77.0 °F - 75.2 °F 94% 30.14 in 7.0 mi Calm Calm - N/A   Unknown
8:55 AM 77.0 °F - 71.6 °F 83% 30.15 in 10.0 mi Calm Calm - N/A   Unknown
9:15 AM 78.8 °F - 73.4 °F 83% 30.15 in 10.0 mi Calm Calm - N/A   Unknown
9:35 AM 78.8 °F - 73.4 °F 83% 30.15 in 7.0 mi Calm Calm - N/A   Unknown
9:55 AM 80.6 °F 85.4 °F 73.4 °F 79% 30.16 in 7.0 mi Calm Calm - N/A   Unknown
10:15 AM 80.6 °F 85.4 °F 73.4 °F 79% 30.16 in 10.0 mi Calm Calm - N/A   Unknown
10:35 AM 82.4 °F 88.2 °F 73.4 °F 74% 30.16 in 10.0 mi Calm Calm - N/A   Unknown
10:55 AM 84.2 °F 90.9 °F 73.4 °F 70% 30.16 in 10.0 mi Calm Calm - N/A   Unknown
11:15 AM 86.0 °F 91.8 °F 71.6 °F 62% 30.16 in 10.0 mi Calm Calm - N/A   Unknown
11:35 AM 89.6 °F 98.2 °F 73.4 °F 59% 30.15 in 10.0 mi Calm Calm - N/A   Unknown
11:55 AM 91.4 °F 102.5 °F 75.2 °F 59% 30.15 in 10.0 mi SE 3.5 mph - N/A   Unknown
12:15 PM 91.4 °F 100.1 °F 73.4 °F 55% 30.14 in 10.0 mi Calm Calm - N/A   Unknown
12:35 PM 91.4 °F 98.4 °F 71.6 °F 52% 30.14 in 10.0 mi Calm Calm - N/A   Unknown
12:55 PM 91.4 °F 96.8 °F 69.8 °F 49% 30.13 in 10.0 mi Calm Calm - N/A   Unknown
1:15 PM 95.0 °F 101.3 °F 69.8 °F 44% 30.13 in 10.0 mi NNW 3.5 mph - N/A   Unknown
1:35 PM 91.4 °F 95.4 °F 68.0 °F 46% 30.11 in 10.0 mi Calm Calm - N/A   Unknown
1:55 PM 95.0 °F 101.3 °F 69.8 °F 44% 30.11 in 10.0 mi Calm Calm - N/A   Unknown
2:15 PM 96.8 °F 103.1 °F 69.8 °F 41% 30.09 in 10.0 mi Calm Calm - N/A   Unknown
2:35 PM 96.8 °F 103.1 °F 69.8 °F 41% 30.08 in 10.0 mi West 3.5 mph - N/A   Unknown
2:55 PM 96.8 °F 103.1 °F 69.8 °F 41% 30.07 in 10.0 mi Calm Calm - N/A   Unknown
3:15 PM 96.8 °F 105.1 °F 71.6 °F 44% 30.06 in 10.0 mi Calm Calm - N/A   Unknown
3:35 PM 96.8 °F 105.1 °F 71.6 °F 44% 30.06 in 10.0 mi Calm Calm - N/A   Unknown
3:55 PM 96.8 °F 103.1 °F 69.8 °F 41% 30.04 in 10.0 mi Calm Calm - N/A   Unknown
4:15 PM 96.8 °F 103.1 °F 69.8 °F 41% 30.03 in 10.0 mi Calm Calm - N/A   Unknown
4:35 PM 96.8 °F 103.1 °F 69.8 °F 41% 30.03 in 10.0 mi Calm Calm - N/A   Unknown
4:55 PM 96.8 °F 103.1 °F 69.8 °F 41% 30.03 in 10.0 mi Calm Calm - N/A   Unknown
5:15 PM 96.8 °F 105.1 °F 71.6 °F 44% 30.03 in 10.0 mi Calm Calm - N/A Thunderstorm Unknown
5:35 PM 96.8 °F 103.1 °F 69.8 °F 41% 30.03 in 10.0 mi Calm Calm - N/A   Unknown
5:55 PM 91.4 °F 100.1 °F 73.4 °F 55% 30.04 in 10.0 mi SSW 5.8 mph - N/A Thunderstorm Thunderstorm
6:15 PM 78.8 °F - 71.6 °F 78% 30.07 in 2.0 mi ENE 15.0 mph 27.6 mph 0.06 in Rain , Thunderstorm Heavy Thunderstorms and Rain
6:35 PM 77.0 °F - 71.6 °F 83% 30.08 in 1.5 mi East 8.1 mph - 0.29 in Rain , Thunderstorm Heavy Thunderstorms and Rain
6:55 PM 77.0 °F - 73.4 °F 89% 30.06 in 4.0 mi NE 4.6 mph 16.1 mph 0.35 in Rain , Thunderstorm Light Thunderstorms and Rain
7:15 PM 77.0 °F - 73.4 °F 89% 30.06 in 10.0 mi NNW 4.6 mph - N/A Rain , Thunderstorm Light Thunderstorms and Rain
7:35 PM 77.0 °F - 73.4 °F 89% 30.05 in 10.0 mi ESE 3.5 mph - N/A   Unknown
7:55 PM 77.0 °F - 75.2 °F 94% 30.05 in 10.0 mi Calm Calm - N/A   Unknown
8:15 PM 77.0 °F - 75.2 °F 94% 30.06 in 7.0 mi Calm Calm - N/A Rain Light Rain
8:35 PM 77.0 °F - 77.0 °F 100% 30.07 in 7.0 mi Calm Calm - N/A   Unknown
8:55 PM 77.0 °F - 77.0 °F 100% 30.08 in 5.0 mi Calm Calm - N/A   Mist
9:15 PM 77.0 °F - 77.0 °F 100% 30.07 in 5.0 mi Calm Calm - N/A   Mist
9:35 PM 73.4 °F - 73.4 °F 100% 30.08 in 5.0 mi Calm Calm - N/A   Mist
9:55 PM 73.4 °F - 73.4 °F 100% 30.08 in 5.0 mi West 3.5 mph - N/A   Mist
10:15 PM 77.0 °F - 77.0 °F 100% 30.09 in 7.0 mi Calm Calm - N/A   Unknown
10:35 PM 73.4 °F - 73.4 °F 100% 30.09 in 5.0 mi Calm Calm - N/A   Mist
10:55 PM 73.4 °F - 73.4 °F 100% 30.09 in 5.0 mi Calm Calm - N/A   Mist
11:15 PM 75.2 °F - 75.2 °F 100% 30.09 in 5.0 mi Calm Calm - N/A   Mist
11:35 PM 73.4 °F - 73.4 °F 100% 30.08 in 5.0 mi Calm Calm - N/A   Mist
11:55 PM 73.4 °F - 73.4 °F 100% 30.08 in 5.0 mi Calm Calm - N/A   Mist